Location: Baia Mare
(47.6567°N, 23.5850°E)
Time: 04:59:28
(UTC+02:00)

ISS - Pass Details

Date: 09 February 2018
Orbit: 402 x 407 km, 51.6° (Epoch: 23 February)

Event Time Altitude Azimuth Distance (km) Brightness Sun altitude
Rises 20:34:41 0° 283° (WNW) 2,319 1.2 -29.9°
Reaches altitude 10° 20:37:39 10° 253° (WSW) 1,456 -0.3 -30.4°
Enters shadow 20:37:42 10° 253° (WSW) 1,447 -0.4 -30.4°
